Year,Month,Day,Hour,Minute,Value (Times are PST for insolation in W/m^2)
2016,07,07,00,00,0.00
2016,07,07,00,01,0.00
2016,07,07,00,02,0.00
2016,07,07,00,03,0.00
2016,07,07,00,04,0.00
2016,07,07,00,05,0.00
2016,07,07,00,06,0.00
2016,07,07,00,07,0.00
2016,07,07,00,08,0.00
2016,07,07,00,09,0.00
2016,07,07,00,10,0.00
2016,07,07,00,11,0.00
2016,07,07,00,12,0.00
2016,07,07,00,13,0.00
2016,07,07,00,14,0.00
2016,07,07,00,15,0.00
2016,07,07,00,16,0.00
2016,07,07,00,17,0.00
2016,07,07,00,18,0.00
2016,07,07,00,19,0.00
2016,07,07,00,20,0.00
2016,07,07,00,21,0.00
2016,07,07,00,22,0.00
2016,07,07,00,23,0.00
2016,07,07,00,24,0.00
2016,07,07,00,25,0.00
2016,07,07,00,26,0.00
2016,07,07,00,27,0.00
2016,07,07,00,28,0.00
2016,07,07,00,29,0.00
2016,07,07,00,30,0.00
2016,07,07,00,31,0.00
2016,07,07,00,32,0.00
2016,07,07,00,33,0.00
2016,07,07,00,34,0.00
2016,07,07,00,35,0.00
2016,07,07,00,36,0.00
2016,07,07,00,37,0.00
2016,07,07,00,38,0.00
2016,07,07,00,39,0.00
2016,07,07,00,40,0.00
2016,07,07,00,41,0.00
2016,07,07,00,42,0.00
2016,07,07,00,43,0.00
2016,07,07,00,44,0.00
2016,07,07,00,45,0.00
2016,07,07,00,46,0.00
2016,07,07,00,47,0.00
2016,07,07,00,48,0.00
2016,07,07,00,49,0.00
2016,07,07,00,50,0.00
2016,07,07,00,51,0.00
2016,07,07,00,52,0.00
2016,07,07,00,53,0.00
2016,07,07,00,54,0.00
2016,07,07,00,55,0.00
2016,07,07,00,56,0.00
2016,07,07,00,57,0.00
2016,07,07,00,58,0.00
2016,07,07,00,59,0.00
2016,07,07,01,00,0.00
2016,07,07,01,01,0.00
2016,07,07,01,02,0.00
2016,07,07,01,03,0.00
2016,07,07,01,04,0.00
2016,07,07,01,05,0.00
2016,07,07,01,06,0.00
2016,07,07,01,07,0.00
2016,07,07,01,08,0.00
2016,07,07,01,09,0.00
2016,07,07,01,10,0.00
2016,07,07,01,11,0.00
2016,07,07,01,12,0.00
2016,07,07,01,13,0.00
2016,07,07,01,14,0.00
2016,07,07,01,15,0.00
2016,07,07,01,16,0.00
2016,07,07,01,17,0.00
2016,07,07,01,18,0.00
2016,07,07,01,19,0.00
2016,07,07,01,20,0.00
2016,07,07,01,21,0.00
2016,07,07,01,22,0.00
2016,07,07,01,23,0.00
2016,07,07,01,24,0.00
2016,07,07,01,25,0.00
2016,07,07,01,26,0.00
2016,07,07,01,27,0.00
2016,07,07,01,28,0.00
2016,07,07,01,29,0.00
2016,07,07,01,30,0.00
2016,07,07,01,31,0.00
2016,07,07,01,32,0.00
2016,07,07,01,33,0.00
2016,07,07,01,34,0.00
2016,07,07,01,35,0.00
2016,07,07,01,36,0.00
2016,07,07,01,37,0.00
2016,07,07,01,38,0.00
2016,07,07,01,39,0.00
2016,07,07,01,40,0.00
2016,07,07,01,41,0.00
2016,07,07,01,42,0.00
2016,07,07,01,43,0.00
2016,07,07,01,44,0.00
2016,07,07,01,45,0.00
2016,07,07,01,46,0.00
2016,07,07,01,47,0.00
2016,07,07,01,48,0.00
2016,07,07,01,49,0.00
2016,07,07,01,50,0.00
2016,07,07,01,51,0.00
2016,07,07,01,52,0.00
2016,07,07,01,53,0.00
2016,07,07,01,54,0.00
2016,07,07,01,55,0.00
2016,07,07,01,56,0.00
2016,07,07,01,57,0.00
2016,07,07,01,58,0.00
2016,07,07,01,59,0.00
2016,07,07,02,00,0.00
2016,07,07,02,01,0.00
2016,07,07,02,02,0.00
2016,07,07,02,03,0.00
2016,07,07,02,04,0.00
2016,07,07,02,05,0.00
2016,07,07,02,06,0.00
2016,07,07,02,07,0.00
2016,07,07,02,08,0.00
2016,07,07,02,09,0.00
2016,07,07,02,10,0.00
2016,07,07,02,11,0.00
2016,07,07,02,12,0.00
2016,07,07,02,13,0.00
2016,07,07,02,14,0.00
2016,07,07,02,15,0.00
2016,07,07,02,16,0.00
2016,07,07,02,17,0.00
2016,07,07,02,18,0.00
2016,07,07,02,19,0.00
2016,07,07,02,20,0.00
2016,07,07,02,21,0.00
2016,07,07,02,22,0.00
2016,07,07,02,23,0.00
2016,07,07,02,24,0.00
2016,07,07,02,25,0.00
2016,07,07,02,26,0.00
2016,07,07,02,27,0.00
2016,07,07,02,28,0.00
2016,07,07,02,29,0.00
2016,07,07,02,30,0.00
2016,07,07,02,31,0.00
2016,07,07,02,32,0.00
2016,07,07,02,33,0.00
2016,07,07,02,34,0.00
2016,07,07,02,35,0.00
2016,07,07,02,36,0.00
2016,07,07,02,37,0.00
2016,07,07,02,38,0.00
2016,07,07,02,39,0.00
2016,07,07,02,40,0.00
2016,07,07,02,41,0.00
2016,07,07,02,42,0.00
2016,07,07,02,43,0.00
2016,07,07,02,44,0.00
2016,07,07,02,45,0.00
2016,07,07,02,46,0.00
2016,07,07,02,47,0.00
2016,07,07,02,48,0.00
2016,07,07,02,49,0.00
2016,07,07,02,50,0.00
2016,07,07,02,51,0.00
2016,07,07,02,52,0.00
2016,07,07,02,53,0.00
2016,07,07,02,54,0.00
2016,07,07,02,55,0.00
2016,07,07,02,56,0.00
2016,07,07,02,57,0.00
2016,07,07,02,58,0.00
2016,07,07,02,59,0.00
2016,07,07,03,00,0.00
2016,07,07,03,01,0.00
2016,07,07,03,02,0.00
2016,07,07,03,03,0.00
2016,07,07,03,04,0.00
2016,07,07,03,05,0.00
2016,07,07,03,06,0.00
2016,07,07,03,07,0.00
2016,07,07,03,08,0.00
2016,07,07,03,09,0.00
2016,07,07,03,10,0.00
2016,07,07,03,11,0.00
2016,07,07,03,12,0.00
2016,07,07,03,13,0.00
2016,07,07,03,14,0.00
2016,07,07,03,15,0.00
2016,07,07,03,16,0.00
2016,07,07,03,17,0.00
2016,07,07,03,18,0.00
2016,07,07,03,19,0.00
2016,07,07,03,20,0.00
2016,07,07,03,21,0.00
2016,07,07,03,22,0.00
2016,07,07,03,23,0.00
2016,07,07,03,24,0.00
2016,07,07,03,25,0.00
2016,07,07,03,26,0.00
2016,07,07,03,27,0.00
2016,07,07,03,28,0.00
2016,07,07,03,29,0.00
2016,07,07,03,30,0.00
2016,07,07,03,31,0.00
2016,07,07,03,32,0.00
2016,07,07,03,33,0.00
2016,07,07,03,34,0.00
2016,07,07,03,35,0.00
2016,07,07,03,36,0.00
2016,07,07,03,37,0.00
2016,07,07,03,38,0.00
2016,07,07,03,39,0.00
2016,07,07,03,40,0.00
2016,07,07,03,41,0.00
2016,07,07,03,42,0.00
2016,07,07,03,43,0.00
2016,07,07,03,44,0.00
2016,07,07,03,45,0.00
2016,07,07,03,46,0.00
2016,07,07,03,47,0.00
2016,07,07,03,48,0.00
2016,07,07,03,49,0.00
2016,07,07,03,50,0.00
2016,07,07,03,51,0.00
2016,07,07,03,52,0.00
2016,07,07,03,53,0.00
2016,07,07,03,54,0.00
2016,07,07,03,55,0.00
2016,07,07,03,56,0.00
2016,07,07,03,57,0.00
2016,07,07,03,58,0.00
2016,07,07,03,59,0.00
2016,07,07,04,00,0.00
2016,07,07,04,01,0.00
2016,07,07,04,02,0.00
2016,07,07,04,03,0.00
2016,07,07,04,04,0.00
2016,07,07,04,05,0.00
2016,07,07,04,06,0.00
2016,07,07,04,07,0.00
2016,07,07,04,08,0.00
2016,07,07,04,09,0.00
2016,07,07,04,10,0.00
2016,07,07,04,11,0.00
2016,07,07,04,12,0.00
2016,07,07,04,13,0.00
2016,07,07,04,14,0.00
2016,07,07,04,15,0.00
2016,07,07,04,16,0.00
2016,07,07,04,17,0.00
2016,07,07,04,18,0.00
2016,07,07,04,19,0.00
2016,07,07,04,20,0.00
2016,07,07,04,21,0.00
2016,07,07,04,22,0.00
2016,07,07,04,23,0.00
2016,07,07,04,24,0.00
2016,07,07,04,25,0.00
2016,07,07,04,26,0.00
2016,07,07,04,27,0.00
2016,07,07,04,28,0.00
2016,07,07,04,29,0.00
2016,07,07,04,30,0.00
2016,07,07,04,31,0.00
2016,07,07,04,32,0.00
2016,07,07,04,33,0.00
2016,07,07,04,34,0.00
2016,07,07,04,35,0.00
2016,07,07,04,36,0.00
2016,07,07,04,37,0.00
2016,07,07,04,38,0.00
2016,07,07,04,39,0.00
2016,07,07,04,40,0.00
2016,07,07,04,41,0.00
2016,07,07,04,42,0.00
2016,07,07,04,43,0.00
2016,07,07,04,44,0.00
2016,07,07,04,45,0.00
2016,07,07,04,46,0.00
2016,07,07,04,47,0.00
2016,07,07,04,48,0.00
2016,07,07,04,49,0.00
2016,07,07,04,50,0.00
2016,07,07,04,51,0.00
2016,07,07,04,52,0.00
2016,07,07,04,53,0.00
2016,07,07,04,54,0.00
2016,07,07,04,55,0.00
2016,07,07,04,56,0.00
2016,07,07,04,57,0.00
2016,07,07,04,58,0.00
2016,07,07,04,59,0.00
2016,07,07,05,00,0.00
2016,07,07,05,01,0.00
2016,07,07,05,02,0.00
2016,07,07,05,03,0.00
2016,07,07,05,04,0.00
2016,07,07,05,05,0.00
2016,07,07,05,06,0.00
2016,07,07,05,07,0.00
2016,07,07,05,08,0.00
2016,07,07,05,09,0.00
2016,07,07,05,10,0.00
2016,07,07,05,11,0.00
2016,07,07,05,12,0.00
2016,07,07,05,13,0.00
2016,07,07,05,14,0.00
2016,07,07,05,15,0.00
2016,07,07,05,16,0.00
2016,07,07,05,17,0.00
2016,07,07,05,18,0.00
2016,07,07,05,19,0.00
2016,07,07,05,20,0.00
2016,07,07,05,21,0.00
2016,07,07,05,22,0.00
2016,07,07,05,23,0.00
2016,07,07,05,24,0.00
2016,07,07,05,25,0.00
2016,07,07,05,26,0.00
2016,07,07,05,27,0.00
2016,07,07,05,28,0.00
2016,07,07,05,29,0.00
2016,07,07,05,30,0.00
2016,07,07,05,31,0.00
2016,07,07,05,32,0.00
2016,07,07,05,33,0.00
2016,07,07,05,34,0.00
2016,07,07,05,35,0.00
2016,07,07,05,36,0.00
2016,07,07,05,37,0.00
2016,07,07,05,38,0.00
2016,07,07,05,39,0.00
2016,07,07,05,40,0.00
2016,07,07,05,41,0.00
2016,07,07,05,42,0.00
2016,07,07,05,43,0.00
2016,07,07,05,44,0.00
2016,07,07,05,45,0.00
2016,07,07,05,46,0.00
2016,07,07,05,47,0.00
2016,07,07,05,48,0.00
2016,07,07,06,06,9.00
2016,07,07,06,07,10.10
2016,07,07,06,08,11.00
2016,07,07,06,09,11.00
2016,07,07,06,10,11.90
2016,07,07,06,11,12.00
2016,07,07,06,12,12.40
2016,07,07,06,13,14.00
2016,07,07,06,14,14.00
2016,07,07,06,15,15.00
2016,07,07,06,16,16.00
2016,07,07,06,17,16.00
2016,07,07,06,18,16.00
2016,07,07,06,19,16.00
2016,07,07,06,20,16.00
2016,07,07,06,21,16.00
2016,07,07,06,22,16.00
2016,07,07,06,23,16.00
2016,07,07,06,24,17.00
2016,07,07,06,25,18.00
2016,07,07,06,26,18.00
2016,07,07,06,27,18.00
2016,07,07,06,28,17.90
2016,07,07,06,29,16.00
2016,07,07,06,30,16.00
2016,07,07,06,31,16.00
2016,07,07,06,32,16.00
2016,07,07,06,33,16.00
2016,07,07,06,34,16.00
2016,07,07,06,35,16.00
2016,07,07,06,36,16.00
2016,07,07,06,37,16.00
2016,07,07,06,38,16.50
2016,07,07,06,39,18.00
2016,07,07,06,40,18.40
2016,07,07,06,41,19.00
2016,07,07,06,42,20.20
2016,07,07,06,43,22.40
2016,07,07,06,44,25.40
2016,07,07,06,45,30.00
2016,07,07,06,46,33.60
2016,07,07,06,47,38.20
2016,07,07,06,48,43.30
2016,07,07,06,49,47.30
2016,07,07,06,50,51.10
2016,07,07,06,51,56.30
2016,07,07,06,52,61.20
2016,07,07,06,53,64.70
2016,07,07,06,54,69.30
2016,07,07,06,55,72.00
2016,07,07,06,56,73.50
2016,07,07,06,57,77.00
2016,07,07,06,58,75.40
2016,07,07,06,59,71.60
2016,07,07,07,00,65.00
2016,07,07,07,01,55.40
2016,07,07,07,02,47.70
2016,07,07,07,03,39.30
2016,07,07,07,04,34.20
2016,07,07,07,05,31.40
2016,07,07,07,06,30.00
2016,07,07,07,07,31.10
2016,07,07,07,08,32.70
2016,07,07,07,09,33.00
2016,07,07,07,10,33.00
2016,07,07,07,11,32.90
2016,07,07,07,12,31.70
2016,07,07,07,13,30.00
2016,07,07,07,14,29.20
2016,07,07,07,15,28.00
2016,07,07,07,16,28.00
2016,07,07,07,17,29.40
2016,07,07,07,18,30.00
2016,07,07,07,19,31.80
2016,07,07,07,20,32.00
2016,07,07,07,21,32.00
2016,07,07,07,22,32.00
2016,07,07,07,23,32.50
2016,07,07,07,24,34.10
2016,07,07,07,25,35.00
2016,07,07,07,26,35.00
2016,07,07,07,27,33.30
2016,07,07,07,28,33.00
2016,07,07,07,29,31.60
2016,07,07,07,30,29.50
2016,07,07,07,31,27.20
2016,07,07,07,32,26.00
2016,07,07,07,33,25.50
2016,07,07,07,34,25.00
2016,07,07,07,35,25.00
2016,07,07,07,36,25.90
2016,07,07,07,37,30.20
2016,07,07,07,38,32.50
2016,07,07,07,39,36.10
2016,07,07,07,40,39.30
2016,07,07,07,41,42.10
2016,07,07,07,42,45.20
2016,07,07,07,43,48.20
2016,07,07,07,44,49.00
2016,07,07,07,45,50.80
2016,07,07,07,46,53.10
2016,07,07,07,47,54.40
2016,07,07,07,48,56.00
2016,07,07,07,49,56.00
2016,07,07,07,50,57.00
2016,07,07,07,51,58.00
2016,07,07,07,52,58.00
2016,07,07,07,53,58.00
2016,07,07,07,54,60.00
2016,07,07,07,55,62.20
2016,07,07,07,56,64.00
2016,07,07,07,57,69.00
2016,07,07,07,58,74.20
2016,07,07,07,59,81.10
2016,07,07,08,00,88.20
2016,07,07,08,01,90.00
2016,07,07,08,02,100.80
2016,07,07,08,03,107.00
2016,07,07,08,04,109.40
2016,07,07,08,05,111.00
2016,07,07,08,06,110.20
2016,07,07,08,07,106.90
2016,07,07,08,08,103.10
2016,07,07,08,09,99.10
2016,07,07,08,10,95.60
2016,07,07,08,11,91.30
2016,07,07,08,12,89.80
2016,07,07,08,13,87.50
2016,07,07,08,14,85.30
2016,07,07,08,15,82.70
2016,07,07,08,16,78.90
2016,07,07,08,17,75.10
2016,07,07,08,18,71.00
2016,07,07,08,19,65.70
2016,07,07,08,20,61.80
2016,07,07,08,21,59.20
2016,07,07,08,22,55.40
2016,07,07,08,23,54.00
2016,07,07,08,24,53.50
2016,07,07,08,25,53.00
2016,07,07,08,26,53.70
2016,07,07,08,27,54.00
2016,07,07,08,28,59.70
2016,07,07,08,29,67.90
2016,07,07,08,30,78.40
2016,07,07,08,31,89.70
2016,07,07,08,32,101.80
2016,07,07,08,33,113.50
2016,07,07,08,34,123.40
2016,07,07,08,35,130.50
2016,07,07,08,36,134.40
2016,07,07,08,37,136.90
2016,07,07,08,38,137.00
2016,07,07,08,39,136.50
2016,07,07,08,40,135.00
2016,07,07,08,41,128.70
2016,07,07,08,42,116.40
2016,07,07,08,43,105.80
2016,07,07,08,44,95.10
2016,07,07,08,45,86.70
2016,07,07,08,46,79.00
2016,07,07,08,47,76.70
2016,07,07,08,48,65.50
2016,07,07,08,49,59.40
2016,07,07,08,50,55.00
2016,07,07,08,51,54.00
2016,07,07,08,52,54.00
2016,07,07,08,53,49.80
2016,07,07,08,54,47.10
2016,07,07,08,55,45.70
2016,07,07,08,56,43.60
2016,07,07,08,57,42.00
2016,07,07,08,58,41.10
2016,07,07,08,59,40.00
2016,07,07,09,00,40.00
2016,07,07,09,01,39.20
2016,07,07,09,02,39.00
2016,07,07,09,03,39.00
2016,07,07,09,04,39.20
2016,07,07,09,05,40.60
2016,07,07,09,06,42.80
2016,07,07,09,07,44.00
2016,07,07,09,08,45.20
2016,07,07,09,09,46.70
2016,07,07,09,10,48.60
2016,07,07,09,11,49.00
2016,07,07,09,12,51.30
2016,07,07,09,13,53.20
2016,07,07,09,14,54.60
2016,07,07,09,15,56.00
2016,07,07,09,16,56.00
2016,07,07,09,17,57.20
2016,07,07,09,18,58.00
2016,07,07,09,19,59.60
2016,07,07,09,20,60.10
2016,07,07,09,21,62.20
2016,07,07,09,22,63.60
2016,07,07,09,23,65.00
2016,07,07,09,24,65.00
2016,07,07,09,25,63.90
2016,07,07,09,26,63.00
2016,07,07,09,27,60.80
2016,07,07,09,28,60.00
2016,07,07,09,29,62.10
2016,07,07,09,30,63.00
2016,07,07,09,31,64.90
2016,07,07,09,32,70.30
2016,07,07,09,33,74.10
2016,07,07,09,34,76.70
2016,07,07,09,35,76.30
2016,07,07,09,36,74.40
2016,07,07,09,37,73.80
2016,07,07,09,38,69.00
2016,07,07,09,39,67.50
2016,07,07,09,40,63.00
2016,07,07,09,41,64.00
2016,07,07,09,42,66.10
2016,07,07,09,43,67.00
2016,07,07,09,44,69.20
2016,07,07,09,45,71.70
2016,07,07,09,46,72.00
2016,07,07,09,47,72.00
2016,07,07,09,48,72.50
2016,07,07,09,49,74.80
2016,07,07,09,50,76.50
2016,07,07,09,51,78.10
2016,07,07,09,52,79.00
2016,07,07,09,53,79.00
2016,07,07,09,54,76.20
2016,07,07,09,55,71.50
2016,07,07,09,56,66.20
2016,07,07,09,57,62.00
2016,07,07,09,58,59.10
2016,07,07,09,59,58.00
2016,07,07,10,00,58.00
2016,07,07,10,01,59.50
2016,07,07,10,02,60.00
2016,07,07,10,03,58.00
2016,07,07,10,04,56.00
2016,07,07,10,05,53.60
2016,07,07,10,06,46.00
2016,07,07,10,07,44.00
2016,07,07,10,08,42.00
2016,07,07,10,09,43.40
2016,07,07,10,10,45.60
2016,07,07,10,11,46.00
2016,07,07,10,12,46.90
2016,07,07,10,13,46.00
2016,07,07,10,14,46.00
2016,07,07,10,15,46.00
2016,07,07,10,16,46.00
2016,07,07,10,17,46.70
2016,07,07,10,18,47.00
2016,07,07,10,19,48.60
2016,07,07,10,20,49.10
2016,07,07,10,21,51.30
2016,07,07,10,22,53.20
2016,07,07,10,23,54.00
2016,07,07,10,24,55.80
2016,07,07,10,25,59.10
2016,07,07,10,26,61.90
2016,07,07,10,27,65.90
2016,07,07,10,28,67.00
2016,07,07,10,29,72.10
2016,07,07,10,30,76.20
2016,07,07,10,31,77.00
2016,07,07,10,32,79.10
2016,07,07,10,33,83.50
2016,07,07,10,34,86.40
2016,07,07,10,35,88.00
2016,07,07,10,36,91.80
2016,07,07,10,37,96.70
2016,07,07,10,38,98.60
2016,07,07,10,39,102.40
2016,07,07,10,40,104.40
2016,07,07,10,41,105.00
2016,07,07,10,42,106.00
2016,07,07,10,43,108.30
2016,07,07,10,44,112.00
2016,07,07,10,45,117.20
2016,07,07,10,46,123.10
2016,07,07,10,47,131.00
2016,07,07,10,48,136.80
2016,07,07,10,49,142.90
2016,07,07,10,50,146.00
2016,07,07,10,51,149.10
2016,07,07,10,52,152.40
2016,07,07,10,53,154.60
2016,07,07,10,54,159.50
2016,07,07,10,55,168.10
2016,07,07,10,56,182.30
2016,07,07,10,57,193.00
2016,07,07,10,58,206.70
2016,07,07,10,59,229.70
2016,07,07,11,00,235.20
2016,07,07,11,01,231.50
2016,07,07,11,02,224.00
2016,07,07,11,03,216.10
2016,07,07,11,04,210.40
2016,07,07,11,05,206.80
2016,07,07,11,06,206.00
2016,07,07,11,07,206.40
2016,07,07,11,08,210.30
2016,07,07,11,09,218.20
2016,07,07,11,10,229.20
2016,07,07,11,11,241.40
2016,07,07,11,12,251.70
2016,07,07,11,13,263.40
2016,07,07,11,14,271.00
2016,07,07,11,15,275.80
2016,07,07,11,16,284.00
2016,07,07,11,17,283.80
2016,07,07,11,18,279.40
2016,07,07,11,19,270.70
2016,07,07,11,20,257.40
2016,07,07,11,21,253.50
2016,07,07,11,22,260.10
2016,07,07,11,23,271.70
2016,07,07,11,24,282.30
2016,07,07,11,25,295.40
2016,07,07,11,26,308.80
2016,07,07,11,27,315.20
2016,07,07,11,28,316.00
2016,07,07,11,29,310.80
2016,07,07,11,30,300.50
2016,07,07,11,31,290.90
2016,07,07,11,32,279.90
2016,07,07,11,33,271.80
2016,07,07,11,34,269.00
2016,07,07,11,35,272.50
2016,07,07,11,36,274.00
2016,07,07,11,37,299.20
2016,07,07,11,38,317.00
2016,07,07,11,39,322.30
2016,07,07,11,40,316.50
2016,07,07,11,41,305.00
2016,07,07,11,42,295.30
2016,07,07,11,43,289.40
2016,07,07,11,44,293.30
2016,07,07,11,45,310.20
2016,07,07,11,46,337.20
2016,07,07,11,47,371.00
2016,07,07,11,48,384.80
2016,07,07,11,49,435.50
2016,07,07,11,50,451.00
2016,07,07,11,51,463.30
2016,07,07,11,52,473.60
2016,07,07,11,53,476.00
2016,07,07,11,54,476.00
2016,07,07,11,55,476.00
2016,07,07,11,56,476.20
2016,07,07,11,57,476.50
2016,07,07,11,58,469.60
2016,07,07,11,59,462.50
2016,07,07,12,00,461.00
2016,07,07,12,01,441.70
2016,07,07,12,02,420.20
2016,07,07,12,03,394.50
2016,07,07,12,04,355.80
2016,07,07,12,05,321.40
2016,07,07,12,06,291.00
2016,07,07,12,07,267.00
2016,07,07,12,08,250.90
2016,07,07,12,09,246.00
2016,07,07,12,10,254.20
2016,07,07,12,11,273.30
2016,07,07,12,12,298.80
2016,07,07,12,13,320.10
2016,07,07,12,14,334.20
2016,07,07,12,15,344.10
2016,07,07,12,16,354.30
2016,07,07,12,17,366.40
2016,07,07,12,18,389.20
2016,07,07,12,19,427.00
2016,07,07,12,20,473.80
2016,07,07,12,21,520.40
2016,07,07,12,22,562.00
2016,07,07,12,23,608.70
2016,07,07,12,24,643.00
2016,07,07,12,25,643.00
2016,07,07,12,26,557.80
2016,07,07,12,27,501.30
2016,07,07,12,28,479.10
2016,07,07,12,29,459.90
2016,07,07,12,30,447.30
2016,07,07,12,31,439.90
2016,07,07,12,32,432.30
2016,07,07,12,33,418.70
2016,07,07,12,34,399.60
2016,07,07,12,35,379.30
2016,07,07,12,36,358.60
2016,07,07,12,37,342.40
2016,07,07,12,38,329.60
2016,07,07,12,39,317.70
2016,07,07,12,40,308.00
2016,07,07,12,41,298.60
2016,07,07,12,42,281.50
2016,07,07,12,43,278.00
2016,07,07,12,44,281.50
2016,07,07,12,45,291.90
2016,07,07,12,46,294.90
2016,07,07,12,47,313.00
2016,07,07,12,48,313.00
2016,07,07,12,49,311.70
2016,07,07,12,50,309.00
2016,07,07,12,51,309.00
2016,07,07,12,52,305.80
2016,07,07,12,53,297.10
2016,07,07,12,54,288.30
2016,07,07,12,55,283.80
2016,07,07,12,56,292.50
2016,07,07,12,57,307.40
2016,07,07,12,58,319.60
2016,07,07,12,59,326.00
2016,07,07,13,00,327.00
2016,07,07,13,01,323.50
2016,07,07,13,02,317.20
2016,07,07,13,03,309.10
2016,07,07,13,04,298.30
2016,07,07,13,05,292.00
2016,07,07,13,06,293.00
2016,07,07,13,07,296.70
2016,07,07,13,08,300.60
2016,07,07,13,09,302.00
2016,07,07,13,10,302.00
2016,07,07,13,11,293.90
2016,07,07,13,12,290.90
2016,07,07,13,13,267.60
2016,07,07,13,14,258.20
2016,07,07,13,15,250.00
2016,07,07,13,16,240.90
2016,07,07,13,17,235.40
2016,07,07,13,18,234.00
2016,07,07,13,19,234.00
2016,07,07,13,20,235.80
2016,07,07,13,21,236.80
2016,07,07,13,22,245.10
2016,07,07,13,23,254.10
2016,07,07,13,24,270.50
2016,07,07,13,25,291.00
2016,07,07,13,26,309.40
2016,07,07,13,27,315.70
2016,07,07,13,28,307.90
2016,07,07,13,29,297.50
2016,07,07,13,30,298.70
2016,07,07,13,31,309.00
2016,07,07,13,32,329.00
2016,07,07,13,33,381.10
2016,07,07,13,34,396.00
2016,07,07,13,35,404.70
2016,07,07,13,36,403.10
2016,07,07,13,37,383.70
2016,07,07,13,38,360.00
2016,07,07,13,39,337.30
2016,07,07,13,40,325.50
2016,07,07,13,41,321.20
2016,07,07,13,42,319.10
2016,07,07,13,43,319.20
2016,07,07,13,44,315.30
2016,07,07,13,45,301.80
2016,07,07,13,46,282.80
2016,07,07,13,47,272.00
2016,07,07,13,48,273.10
2016,07,07,13,49,280.50
2016,07,07,13,50,287.00
2016,07,07,13,51,292.00
2016,07,07,13,52,292.80
2016,07,07,13,53,285.70
2016,07,07,13,54,273.30
2016,07,07,13,55,269.80
2016,07,07,13,56,244.50
2016,07,07,13,57,233.80
2016,07,07,13,58,223.40
2016,07,07,13,59,215.00
2016,07,07,14,00,211.00
2016,07,07,14,01,203.40
2016,07,07,14,02,199.00
2016,07,07,14,03,201.60
2016,07,07,14,04,211.50
2016,07,07,14,05,221.10
2016,07,07,14,06,227.00
2016,07,07,14,07,229.90
2016,07,07,14,08,235.00
2016,07,07,14,09,237.80
2016,07,07,14,10,240.30
2016,07,07,14,11,242.60
2016,07,07,14,12,243.00
2016,07,07,14,13,242.70
2016,07,07,14,14,240.60
2016,07,07,14,15,239.70
2016,07,07,14,16,243.10
2016,07,07,14,17,246.00
2016,07,07,14,18,253.10
2016,07,07,14,19,259.20
2016,07,07,14,20,260.00
2016,07,07,14,21,271.90
2016,07,07,14,22,282.30
2016,07,07,14,23,292.60
2016,07,07,14,24,300.80
2016,07,07,14,25,305.00
2016,07,07,14,26,303.00
2016,07,07,14,27,293.10
2016,07,07,14,28,282.80
2016,07,07,14,29,278.30
2016,07,07,14,30,277.80
2016,07,07,14,31,275.00
2016,07,07,14,32,269.90
2016,07,07,14,33,266.20
2016,07,07,14,34,265.00
2016,07,07,14,35,266.30
2016,07,07,14,36,270.70
2016,07,07,14,37,280.90
2016,07,07,14,38,294.40
2016,07,07,14,39,295.60
2016,07,07,14,40,297.00
2016,07,07,14,41,292.00
2016,07,07,14,42,283.00
2016,07,07,14,43,263.30
2016,07,07,14,44,251.10
2016,07,07,14,45,244.20
2016,07,07,14,46,243.90
2016,07,07,14,47,245.70
2016,07,07,14,48,243.00
2016,07,07,14,49,235.00
2016,07,07,14,50,228.20
2016,07,07,14,51,231.70
2016,07,07,14,52,248.70
2016,07,07,14,53,283.90
2016,07,07,14,54,295.00
2016,07,07,14,55,295.00
2016,07,07,14,56,305.10
2016,07,07,14,57,394.60
2016,07,07,14,58,393.30
2016,07,07,14,59,409.50
2016,07,07,15,00,420.00
2016,07,07,15,01,433.60
2016,07,07,15,02,442.50
2016,07,07,15,03,443.00
2016,07,07,15,04,445.20
2016,07,07,15,05,453.70
2016,07,07,15,06,465.80
2016,07,07,15,07,480.00
2016,07,07,15,08,525.20
2016,07,07,15,09,575.00
2016,07,07,15,10,628.90
2016,07,07,15,11,652.00
2016,07,07,15,12,652.00
2016,07,07,15,13,652.00
2016,07,07,15,14,641.20
2016,07,07,15,15,598.30
2016,07,07,15,16,607.60
2016,07,07,15,17,616.00
2016,07,07,15,18,613.00
2016,07,07,15,19,613.00
2016,07,07,15,20,613.00
2016,07,07,15,21,459.30
2016,07,07,15,22,476.60
2016,07,07,15,23,499.10
2016,07,07,15,24,506.00
2016,07,07,15,25,478.50
2016,07,07,15,26,434.60
2016,07,07,15,27,427.00
2016,07,07,15,28,459.40
2016,07,07,15,29,474.90
2016,07,07,15,30,456.00
2016,07,07,15,31,437.20
2016,07,07,15,32,439.10
2016,07,07,15,33,456.40
2016,07,07,15,34,452.00
2016,07,07,15,35,415.80
2016,07,07,15,36,381.50
2016,07,07,15,37,362.00
2016,07,07,15,38,340.00
2016,07,07,15,39,316.00
2016,07,07,15,40,294.00
2016,07,07,15,41,279.30
2016,07,07,15,42,273.80
2016,07,07,15,43,271.00
2016,07,07,15,44,262.30
2016,07,07,15,45,252.00
2016,07,07,15,46,240.60
2016,07,07,15,47,229.10
2016,07,07,15,48,220.40
2016,07,07,15,49,217.50
2016,07,07,15,50,219.90
2016,07,07,15,51,233.70
2016,07,07,15,52,244.10
2016,07,07,15,53,242.50
2016,07,07,15,54,231.90
2016,07,07,15,55,221.80
2016,07,07,15,56,221.20
2016,07,07,15,57,223.80
2016,07,07,15,58,228.80
2016,07,07,15,59,232.00
2016,07,07,16,00,229.50
2016,07,07,16,01,221.60
2016,07,07,16,02,215.10
2016,07,07,16,03,215.60
2016,07,07,16,04,219.80
2016,07,07,16,05,220.30
2016,07,07,16,06,224.70
2016,07,07,16,07,235.10
2016,07,07,16,08,251.60
2016,07,07,16,09,267.70
2016,07,07,16,10,278.50
2016,07,07,16,11,281.00
2016,07,07,16,12,281.00
2016,07,07,16,13,280.60
2016,07,07,16,14,272.30
2016,07,07,16,15,261.30
2016,07,07,16,16,247.00
2016,07,07,16,17,237.50
2016,07,07,16,18,231.00
2016,07,07,16,19,229.70
2016,07,07,16,20,233.20
2016,07,07,16,21,234.00
2016,07,07,16,22,240.60
2016,07,07,16,23,237.00
2016,07,07,16,24,230.70
2016,07,07,16,25,218.00
2016,07,07,16,26,212.20
2016,07,07,16,27,206.40
2016,07,07,16,28,201.70
2016,07,07,16,29,200.00
2016,07,07,16,30,199.20
2016,07,07,16,31,183.00
2016,07,07,16,32,182.50
2016,07,07,16,33,182.80
2016,07,07,16,34,188.60
2016,07,07,16,35,192.50
2016,07,07,16,36,189.80
2016,07,07,16,37,180.60
2016,07,07,16,38,171.80
2016,07,07,16,39,166.80
2016,07,07,16,40,165.80
2016,07,07,16,41,169.00
2016,07,07,16,42,168.10
2016,07,07,16,43,166.00
2016,07,07,16,44,163.10
2016,07,07,16,45,162.00
2016,07,07,16,46,162.00
2016,07,07,16,47,161.90
2016,07,07,16,48,159.40
2016,07,07,16,49,156.00
2016,07,07,16,50,156.00
2016,07,07,16,51,157.90
2016,07,07,16,52,163.90
2016,07,07,16,53,170.30
2016,07,07,16,54,173.50
2016,07,07,16,55,172.30
2016,07,07,16,56,171.10
2016,07,07,16,57,162.80
2016,07,07,16,58,162.00
2016,07,07,16,59,161.20
2016,07,07,17,00,158.10
2016,07,07,17,01,152.90
2016,07,07,17,02,141.20
2016,07,07,17,03,137.00
2016,07,07,17,04,138.80
2016,07,07,17,05,134.90
2016,07,07,17,06,133.00
2016,07,07,17,07,129.40
2016,07,07,17,08,127.60
2016,07,07,17,09,125.90
2016,07,07,17,10,123.70
2016,07,07,17,11,123.00
2016,07,07,17,12,123.00
2016,07,07,17,13,118.10
2016,07,07,17,14,116.00
2016,07,07,17,15,115.40
2016,07,07,17,16,114.00
2016,07,07,17,17,114.00
2016,07,07,17,18,116.30
2016,07,07,17,19,118.00
2016,07,07,17,20,118.00
2016,07,07,17,21,119.70
2016,07,07,17,22,123.00
2016,07,07,17,23,124.20
2016,07,07,17,24,129.20
2016,07,07,17,25,132.90
2016,07,07,17,26,134.00
2016,07,07,17,27,134.60
2016,07,07,17,28,132.80
2016,07,07,17,29,130.30
2016,07,07,17,30,128.20
2016,07,07,17,31,128.30
2016,07,07,17,32,131.00